Location: Oro Verde
(31.8170°S, 60.5170°W)
Time: 17:11:56
(UTC-03:00)

ISS - Visible Passes

Search period start: 13 April 2021 00:00
Search period end: 23 April 2021 00:00
Orbit: 418 x 422 km, 51.6° (Epoch: 13 April)

Date Brightness Start Highest point End Pass type
(mag) Time Alt. Az. Time Alt. Az. Time Alt. Az.
13 Apr -3.8 05:48:52 83° SSE 05:48:55 84° SE 05:52:19 10° NE visible
14 Apr -0.6 05:04:22 13° ENE 05:04:22 13° ENE 05:04:50 10° ENE visible
14 Apr -1.7 06:37:24 12° WNW 06:38:04 13° NW 06:39:39 10° NNW visible
15 Apr -1.4 05:52:59 14° N 05:52:59 14° N 05:53:40 10° N visible
15 Apr -0.8 20:50:33 10° NW 20:51:05 14° NW 20:51:05 14° NW visible
16 Apr -3.7 20:03:16 10° NNW 20:06:29 60° NE 20:06:29 60° NE visible
17 Apr -2.7 19:16:22 10° NNW 19:19:22 30° NE 19:21:45 14° ESE visible
17 Apr -0.7 20:53:33 10° W 20:54:46 16° WSW 20:54:46 16° WSW visible
18 Apr -2.3 20:05:38 10° WNW 20:08:46 34° SW 20:09:54 26° S visible
19 Apr -3.4 19:18:01 10° NW 19:21:23 64° SW 19:24:47 10° SE visible
20 Apr -0.9 20:09:27 10° WSW 20:11:11 13° SSW 20:12:45 11° S visible
21 Apr -1.4 19:21:02 10° W 19:23:40 20° SW 19:26:18 10° SSE visible
